Date String (YYYY-MM-DD hh:mm:ss) UTC,Instrument flags,Ambient pressure (hPa),Sample flow (lpm),Bypass flow (lpm),Sample temperature (°C),Ambient temperature (°C),ASC tube jacket temperature (°C),LED temperature (°C),Box temperature (°C),Sample RH (%),Span deviation,Mass concentration (μg/m³),Mass concentration (μg/m³),Mass concentration (μg/m³)
DateTimeUTC,F1_M11,P_M11,Q1_M11,Q2_M11,T1_M11,T2_M11,T3_M11,T4_M11,T5_M11,U1_M11,ZSPAN_M11,X0_M11,X2_M11,X1_M11
2022-11-06 02:00:00,,0813.3,5.00,0.00,25.3,23.8,00.0,34.1,27.2,13.5,0000.0,0001.90,0000.71,0000.61
2022-11-06 02:01:00,,0813.4,5.00,0.00,25.3,23.8,00.0,34.1,27.2,13.5,0000.0,0002.41,0000.72,0000.63
2022-11-06 02:02:00,,0813.5,5.00,0.00,25.3,23.8,00.0,34.1,27.2,13.5,0000.0,0002.71,0000.71,0000.63
2022-11-06 02:03:00,,0813.5,5.00,0.00,25.3,23.9,00.0,34.1,27.2,13.6,0000.0,0002.70,0000.71,0000.64
2022-11-06 02:04:00,,0813.4,4.99,0.00,25.3,23.8,00.0,34.1,27.2,13.6,0000.0,0002.76,0000.72,0000.63
2022-11-06 02:05:00,,0813.4,5.01,0.00,25.3,23.9,00.0,34.1,27.2,13.7,0000.0,0002.81,0000.74,0000.63
2022-11-06 02:06:00,,0813.5,5.01,0.00,25.3,23.9,00.0,34.1,27.2,13.8,0000.0,0002.84,0000.75,0000.63
2022-11-06 02:07:00,,0813.5,4.99,0.00,25.3,23.8,00.0,34.1,27.2,13.8,0000.0,0002.84,0000.75,0000.63
2022-11-06 02:08:00,,0813.4,4.99,0.00,25.3,23.8,00.0,34.1,27.2,13.8,0000.0,0002.82,0000.74,0000.63
2022-11-06 02:09:00,,0813.4,4.99,0.00,25.3,23.8,00.0,34.1,27.2,13.7,0000.0,0002.77,0000.72,0000.62
2022-11-06 02:10:00,,0813.4,5.01,0.00,25.3,23.8,00.0,34.1,27.2,13.7,0000.0,0002.58,0000.72,0000.61
2022-11-06 02:11:00,,0813.4,5.01,0.00,25.3,23.7,00.0,34.1,27.1,13.6,0000.0,0001.94,0000.72,0000.61
2022-11-06 02:12:00,,0813.4,5.00,0.00,25.3,23.8,00.0,34.1,27.2,13.7,0000.0,0001.54,0000.70,0000.60
2022-11-06 02:13:00,,0813.4,5.00,0.00,25.3,23.7,00.0,34.0,27.2,13.7,0000.0,0001.06,0000.71,0000.59
2022-11-06 02:14:00,,0813.5,5.00,0.00,25.2,23.7,00.0,34.0,27.1,13.6,0000.0,0001.16,0000.74,0000.59
2022-11-06 02:15:00,,0813.3,4.99,0.00,25.2,23.6,00.0,34.0,27.1,13.7,0000.0,0001.12,0000.72,0000.59
2022-11-06 02:16:00,,0813.3,5.00,0.00,25.2,23.6,00.0,34.0,27.1,13.6,0000.0,0001.13,0000.71,0000.59
2022-11-06 02:17:00,,0813.3,5.00,0.00,25.2,23.7,00.0,34.0,27.1,13.6,0000.0,0001.14,0000.72,0000.59
2022-11-06 02:18:00,,0813.3,5.01,0.00,25.2,23.7,00.0,34.0,27.1,13.8,0000.0,0001.18,0000.74,0000.59
2022-11-06 02:19:00,,0813.4,5.01,0.00,25.2,23.7,00.0,34.0,27.1,14.0,0000.0,0001.19,0000.74,0000.59
2022-11-06 02:20:00,,0813.3,5.00,0.00,25.2,23.7,00.0,34.0,27.1,14.2,0000.0,0001.20,0000.74,0000.59
2022-11-06 02:21:00,,0813.3,5.00,0.00,25.2,23.7,00.0,34.0,27.1,14.1,0000.0,0001.28,0000.76,0000.59
2022-11-06 02:22:00,,0813.3,5.00,0.00,25.2,23.6,00.0,34.0,27.1,13.8,0000.0,0001.30,0000.77,0000.60
2022-11-06 02:23:00,,0813.3,5.00,0.00,25.2,23.6,00.0,34.0,27.0,13.8,0000.0,0001.30,0000.78,0000.61
2022-11-06 02:24:00,,0813.3,4.99,0.00,25.1,23.5,00.0,34.0,27.0,13.9,0000.0,0001.27,0000.77,0000.61
2022-11-06 02:25:00,,0813.3,5.00,0.00,25.1,23.5,00.0,34.0,27.0,13.9,0000.0,0001.16,0000.74,0000.61
2022-11-06 02:26:00,,0813.3,5.02,0.00,25.1,23.5,00.0,34.0,27.0,14.0,0000.0,0001.12,0000.74,0000.62
2022-11-06 02:27:00,,0813.4,4.99,0.00,25.1,23.5,00.0,34.0,27.0,14.0,0000.0,0001.08,0000.72,0000.61
2022-11-06 02:28:00,,0813.5,5.00,0.00,25.1,23.5,00.0,34.0,27.0,14.1,0000.0,0001.03,0000.71,0000.61
2022-11-06 02:29:00,,0813.6,5.00,0.00,25.1,23.5,00.0,34.0,27.0,14.2,0000.0,0001.01,0000.70,0000.62
2022-11-06 02:30:00,,0813.5,5.00,0.00,25.1,23.4,00.0,33.9,26.9,14.1,0000.0,0001.01,0000.70,0000.62
2022-11-06 02:31:00,,0813.5,5.00,0.00,25.1,23.4,00.0,33.9,26.9,14.0,0000.0,0000.99,0000.70,0000.62
2022-11-06 02:32:00,,0813.5,4.99,0.00,25.1,23.4,00.0,33.9,26.9,13.9,0000.0,0000.88,0000.67,0000.62
2022-11-06 02:33:00,,0813.4,5.01,0.00,25.1,23.4,00.0,33.9,26.9,13.9,0000.0,0001.10,0000.68,0000.63
2022-11-06 02:34:00,,0813.3,4.99,0.00,25.1,23.5,00.0,33.9,26.9,13.9,0000.0,0001.20,0000.68,0000.63
2022-11-06 02:35:00,,0813.3,5.00,0.00,25.1,23.6,00.0,33.9,27.0,13.9,0000.0,0001.20,0000.68,0000.63
2022-11-06 02:36:00,,0813.5,5.01,0.00,25.1,23.7,00.0,33.9,27.0,13.9,0000.0,0001.21,0000.69,0000.64
2022-11-06 02:37:00,,0813.5,5.00,0.00,25.1,23.7,00.0,33.9,27.0,13.9,0000.0,0001.22,0000.70,0000.65
2022-11-06 02:38:00,,0813.6,5.00,0.00,25.1,23.7,00.0,33.9,27.0,14.0,0000.0,0001.29,0000.73,0000.66
2022-11-06 02:39:00,,0814.2,5.01,0.00,25.1,23.8,00.0,33.9,27.0,14.0,0000.0,0001.41,0000.74,0000.67
2022-11-06 02:40:00,,0814.1,5.01,0.00,25.1,23.8,00.0,33.9,27.0,14.0,0000.0,0001.48,0000.77,0000.67
2022-11-06 02:41:00,,0813.8,5.01,0.00,25.1,23.9,00.0,33.9,27.0,14.0,0000.0,0001.53,0000.81,0000.69
2022-11-06 02:42:00,,0813.9,4.99,0.00,25.1,23.9,00.0,33.9,27.1,14.0,0000.0,0001.55,0000.83,0000.71
2022-11-06 02:43:00,,0814.1,4.99,0.00,25.2,23.8,00.0,33.9,27.1,14.0,0000.0,0001.56,0000.83,0000.71
2022-11-06 02:44:00,,0813.8,5.00,0.00,25.1,23.7,00.0,33.9,27.0,14.1,0000.0,0001.37,0000.82,0000.71
2022-11-06 02:45:00,,0813.9,5.00,0.00,25.1,23.7,00.0,33.9,27.0,14.1,0000.0,0001.51,0000.82,0000.70
2022-11-06 02:46:00,,0813.9,5.00,0.00,25.1,23.6,00.0,33.9,27.0,14.1,0000.0,0001.55,0000.82,0000.70
2022-11-06 02:47:00,,0813.9,5.00,0.00,25.1,23.6,00.0,33.9,27.0,14.1,0000.0,0001.55,0000.81,0000.69
2022-11-06 02:48:00,,0814.1,5.00,0.00,25.1,23.6,00.0,33.9,27.0,14.1,0000.0,0001.56,0000.80,0000.67
2022-11-06 02:49:00,,0813.9,5.00,0.00,25.1,23.6,00.0,33.9,27.0,14.2,0000.0,0001.49,0000.78,0000.67
2022-11-06 02:50:00,,0813.9,5.00,0.00,25.1,23.6,00.0,33.9,27.0,14.2,0000.0,0001.41,0000.77,0000.66
2022-11-06 02:51:00,,0813.9,5.00,0.00,25.1,23.7,00.0,33.9,27.0,14.2,0000.0,0001.38,0000.75,0000.66
2022-11-06 02:52:00,,0814.2,5.00,0.00,25.1,23.8,00.0,33.9,27.0,14.2,0000.0,0001.35,0000.72,0000.64
2022-11-06 02:53:00,,0814.2,5.00,0.00,25.1,23.8,00.0,33.9,27.1,14.2,0000.0,0001.34,0000.71,0000.63
2022-11-06 02:54:00,,0814.0,5.01,0.00,25.2,23.9,00.0,33.9,27.1,14.2,0000.0,0001.39,0000.72,0000.63
2022-11-06 02:55:00,,0814.1,5.00,0.00,25.2,23.9,00.0,33.9,27.1,14.1,0000.0,0001.40,0000.72,0000.63
2022-11-06 02:56:00,,0813.9,5.00,0.00,25.2,23.9,00.0,33.9,27.1,14.1,0000.0,0001.23,0000.78,0000.64
2022-11-06 02:57:00,,0814.1,4.99,0.00,25.2,23.9,00.0,33.9,27.1,14.0,0000.0,0001.21,0000.77,0000.64
2022-11-06 02:58:00,,0814.1,4.99,0.00,25.2,23.9,00.0,34.0,27.1,14.1,0000.0,0001.29,0000.78,0000.64
2022-11-06 02:59:00,,0814.0,5.00,0.00,25.2,23.9,00.0,34.0,27.1,14.0,0000.0,0001.25,0000.77,0000.64
